Year,Month,Day,Hour,Minute,Value (Times are PST for temperature in C)
2013,02,10,00,00,4.60
2013,02,10,00,01,4.60
2013,02,10,00,02,4.60
2013,02,10,00,03,4.60
2013,02,10,00,04,4.60
2013,02,10,00,05,4.60
2013,02,10,00,06,4.60
2013,02,10,00,07,4.60
2013,02,10,00,08,4.60
2013,02,10,00,09,4.60
2013,02,10,00,10,4.60
2013,02,10,00,11,4.60
2013,02,10,00,12,4.60
2013,02,10,00,13,4.60
2013,02,10,00,14,4.60
2013,02,10,00,15,4.50
2013,02,10,00,16,4.50
2013,02,10,00,17,4.50
2013,02,10,00,18,4.50
2013,02,10,00,19,4.50
2013,02,10,00,20,4.50
2013,02,10,00,21,4.50
2013,02,10,00,22,4.50
2013,02,10,00,23,4.50
2013,02,10,00,24,4.50
2013,02,10,00,25,4.40
2013,02,10,00,26,4.40
2013,02,10,00,27,4.40
2013,02,10,00,28,4.40
2013,02,10,00,29,4.40
2013,02,10,00,30,4.40
2013,02,10,00,31,4.40
2013,02,10,00,32,4.40
2013,02,10,00,33,4.40
2013,02,10,00,34,4.40
2013,02,10,00,35,4.40
2013,02,10,00,36,4.40
2013,02,10,00,37,4.50
2013,02,10,00,38,4.50
2013,02,10,00,39,4.50
2013,02,10,00,40,4.50
2013,02,10,00,41,4.50
2013,02,10,00,42,4.50
2013,02,10,00,43,4.60
2013,02,10,00,44,4.60
2013,02,10,00,45,4.60
2013,02,10,00,46,4.60
2013,02,10,00,47,4.60
2013,02,10,00,48,4.60
2013,02,10,00,49,4.60
2013,02,10,00,50,4.60
2013,02,10,00,51,4.60
2013,02,10,00,52,4.70
2013,02,10,00,53,4.70
2013,02,10,00,54,4.70
2013,02,10,00,55,4.70
2013,02,10,00,56,4.70
2013,02,10,00,57,4.70
2013,02,10,00,58,4.70
2013,02,10,00,59,4.70
2013,02,10,01,00,4.70
2013,02,10,01,01,4.70
2013,02,10,01,02,4.70
2013,02,10,01,03,4.70
2013,02,10,01,04,4.70
2013,02,10,01,05,4.70
2013,02,10,01,06,4.70
2013,02,10,01,07,4.70
2013,02,10,01,08,4.70
2013,02,10,01,09,4.70
2013,02,10,01,10,4.70
2013,02,10,01,11,4.70
2013,02,10,01,12,4.70
2013,02,10,01,13,4.70
2013,02,10,01,14,4.70
2013,02,10,01,15,4.70
2013,02,10,01,16,4.70
2013,02,10,01,17,4.70
2013,02,10,01,18,4.70
2013,02,10,01,19,4.70
2013,02,10,01,20,4.70
2013,02,10,01,21,4.70
2013,02,10,01,22,4.70
2013,02,10,01,23,4.70
2013,02,10,01,24,4.70
2013,02,10,01,25,4.70
2013,02,10,01,26,4.70
2013,02,10,01,27,4.70
2013,02,10,01,28,4.70
2013,02,10,01,29,4.70
2013,02,10,01,30,4.70
2013,02,10,01,31,4.70
2013,02,10,01,32,4.70
2013,02,10,01,33,4.70
2013,02,10,01,34,4.70
2013,02,10,01,35,4.70
2013,02,10,01,36,4.70
2013,02,10,01,37,4.70
2013,02,10,01,38,4.70
2013,02,10,01,39,4.70
2013,02,10,01,40,4.70
2013,02,10,01,41,4.70
2013,02,10,01,42,4.70
2013,02,10,01,43,4.70
2013,02,10,01,44,4.70
2013,02,10,01,45,4.70
2013,02,10,01,46,4.70
2013,02,10,01,47,4.70
2013,02,10,01,48,4.70
2013,02,10,01,49,4.70
2013,02,10,01,50,4.70
2013,02,10,01,51,4.70
2013,02,10,01,52,4.70
2013,02,10,01,53,4.70
2013,02,10,01,54,4.70
2013,02,10,01,55,4.70
2013,02,10,01,56,4.70
2013,02,10,01,57,4.70
2013,02,10,01,58,4.70
2013,02,10,01,59,4.70
2013,02,10,02,00,4.60
2013,02,10,02,01,4.70
2013,02,10,02,02,4.60
2013,02,10,02,03,4.70
2013,02,10,02,04,4.70
2013,02,10,02,05,4.70
2013,02,10,02,06,4.70
2013,02,10,02,07,4.70
2013,02,10,02,08,4.70
2013,02,10,02,09,4.70
2013,02,10,02,10,4.70
2013,02,10,02,11,4.70
2013,02,10,02,12,4.70
2013,02,10,02,13,4.70
2013,02,10,02,14,4.70
2013,02,10,02,15,4.70
2013,02,10,02,16,4.70
2013,02,10,02,17,4.70
2013,02,10,02,18,4.70
2013,02,10,02,19,4.70
2013,02,10,02,20,4.70
2013,02,10,02,21,4.70
2013,02,10,02,22,4.60
2013,02,10,02,23,4.60
2013,02,10,02,24,4.60
2013,02,10,02,25,4.60
2013,02,10,02,26,4.60
2013,02,10,02,27,4.60
2013,02,10,02,28,4.60
2013,02,10,02,29,4.60
2013,02,10,02,30,4.60
2013,02,10,02,31,4.60
2013,02,10,02,32,4.60
2013,02,10,02,33,4.60
2013,02,10,02,34,4.60
2013,02,10,02,35,4.60
2013,02,10,02,36,4.60
2013,02,10,02,37,4.60
2013,02,10,02,38,4.60
2013,02,10,02,39,4.60
2013,02,10,02,40,4.60
2013,02,10,02,41,4.60
2013,02,10,02,42,4.60
2013,02,10,02,43,4.60
2013,02,10,02,44,4.60
2013,02,10,02,45,4.60
2013,02,10,02,46,4.50
2013,02,10,02,47,4.50
2013,02,10,02,48,4.50
2013,02,10,02,49,4.40
2013,02,10,02,50,4.40
2013,02,10,02,51,4.40
2013,02,10,02,52,4.40
2013,02,10,02,53,4.40
2013,02,10,02,54,4.40
2013,02,10,02,55,4.40
2013,02,10,02,56,4.40
2013,02,10,02,57,4.40
2013,02,10,02,58,4.40
2013,02,10,02,59,4.40
2013,02,10,03,00,4.30
2013,02,10,03,01,4.40
2013,02,10,03,02,4.40
2013,02,10,03,03,4.40
2013,02,10,03,04,4.40
2013,02,10,03,05,4.40
2013,02,10,03,06,4.40
2013,02,10,03,07,4.30
2013,02,10,03,08,4.30
2013,02,10,03,09,4.30
2013,02,10,03,10,4.30
2013,02,10,03,11,4.30
2013,02,10,03,12,4.30
2013,02,10,03,13,4.30
2013,02,10,03,14,4.30
2013,02,10,03,15,4.30
2013,02,10,03,16,4.30
2013,02,10,03,17,4.30
2013,02,10,03,18,4.30
2013,02,10,03,19,4.30
2013,02,10,03,20,4.30
2013,02,10,03,21,4.30
2013,02,10,03,22,4.30
2013,02,10,03,23,4.30
2013,02,10,03,24,4.30
2013,02,10,03,25,4.30
2013,02,10,03,26,4.30
2013,02,10,03,27,4.30
2013,02,10,03,28,4.30
2013,02,10,03,29,4.30
2013,02,10,03,30,4.30
2013,02,10,03,31,4.30
2013,02,10,03,32,4.30
2013,02,10,03,33,4.30
2013,02,10,03,34,4.30
2013,02,10,03,35,4.30
2013,02,10,03,36,4.20
2013,02,10,03,37,4.20
2013,02,10,03,38,4.20
2013,02,10,03,39,4.30
2013,02,10,03,40,4.30
2013,02,10,03,41,4.30
2013,02,10,03,42,4.30
2013,02,10,03,43,4.30
2013,02,10,03,44,4.30
2013,02,10,03,45,4.30
2013,02,10,03,46,4.30
2013,02,10,03,47,4.30
2013,02,10,03,48,4.30
2013,02,10,03,49,4.30
2013,02,10,03,50,4.30
2013,02,10,03,51,4.30
2013,02,10,03,52,4.30
2013,02,10,03,53,4.30
2013,02,10,03,54,4.30
2013,02,10,03,55,4.30
2013,02,10,03,56,4.30
2013,02,10,03,57,4.30
2013,02,10,03,58,4.30
2013,02,10,03,59,4.30
2013,02,10,04,00,4.30
2013,02,10,04,01,4.30
2013,02,10,04,02,4.30
2013,02,10,04,03,4.30
2013,02,10,04,04,4.30
2013,02,10,04,05,4.30
2013,02,10,04,06,4.30
2013,02,10,04,07,4.30
2013,02,10,04,08,4.30
2013,02,10,04,09,4.30
2013,02,10,04,10,4.30
2013,02,10,04,11,4.30
2013,02,10,04,12,4.30
2013,02,10,04,13,4.20
2013,02,10,04,14,4.20
2013,02,10,04,15,4.20
2013,02,10,04,16,4.20
2013,02,10,04,17,4.20
2013,02,10,04,18,4.20
2013,02,10,04,19,4.20
2013,02,10,04,20,4.20
2013,02,10,04,21,4.20
2013,02,10,04,22,4.20
2013,02,10,04,23,4.20
2013,02,10,04,24,4.20
2013,02,10,04,25,4.20
2013,02,10,04,26,4.20
2013,02,10,04,27,4.20
2013,02,10,04,28,4.20
2013,02,10,04,29,4.20
2013,02,10,04,30,4.20
2013,02,10,04,31,4.20
2013,02,10,04,32,4.20
2013,02,10,04,33,4.20
2013,02,10,04,34,4.20
2013,02,10,04,35,4.20
2013,02,10,04,36,4.20
2013,02,10,04,37,4.20
2013,02,10,04,38,4.20
2013,02,10,04,39,4.20
2013,02,10,04,40,4.20
2013,02,10,04,41,4.20
2013,02,10,04,42,4.10
2013,02,10,04,43,4.10
2013,02,10,04,44,4.10
2013,02,10,04,45,4.10
2013,02,10,04,46,4.10
2013,02,10,04,47,4.10
2013,02,10,04,48,4.10
2013,02,10,04,49,4.10
2013,02,10,04,50,4.10
2013,02,10,04,51,4.10
2013,02,10,04,52,4.10
2013,02,10,04,53,4.10
2013,02,10,04,54,4.10
2013,02,10,04,55,4.10
2013,02,10,04,56,4.10
2013,02,10,04,57,4.10
2013,02,10,04,58,4.10
2013,02,10,04,59,4.10
2013,02,10,05,00,4.10
2013,02,10,05,01,4.10
2013,02,10,05,02,4.10
2013,02,10,05,03,4.00
2013,02,10,05,04,4.00
2013,02,10,05,05,4.00
2013,02,10,05,06,4.00
2013,02,10,05,07,4.00
2013,02,10,05,08,4.00
2013,02,10,05,09,4.00
2013,02,10,05,10,4.00
2013,02,10,05,11,4.00
2013,02,10,05,12,4.00
2013,02,10,05,13,4.00
2013,02,10,05,14,4.00
2013,02,10,05,15,4.00
2013,02,10,05,16,4.00
2013,02,10,05,17,4.00
2013,02,10,05,18,4.00
2013,02,10,05,19,4.00
2013,02,10,05,20,4.00
2013,02,10,05,21,4.00
2013,02,10,05,22,4.00
2013,02,10,05,23,4.00
2013,02,10,05,24,4.00
2013,02,10,05,25,4.00
2013,02,10,05,26,4.00
2013,02,10,05,27,4.00
2013,02,10,05,28,4.00
2013,02,10,05,29,4.00
2013,02,10,05,30,4.00
2013,02,10,05,31,4.00
2013,02,10,05,32,4.00
2013,02,10,05,33,4.00
2013,02,10,05,34,4.00
2013,02,10,05,35,4.00
2013,02,10,05,36,4.00
2013,02,10,05,37,4.00
2013,02,10,05,38,4.00
2013,02,10,05,39,4.00
2013,02,10,05,40,4.00
2013,02,10,05,41,4.00
2013,02,10,05,42,4.00
2013,02,10,05,43,4.00
2013,02,10,05,44,4.00
2013,02,10,05,45,4.00
2013,02,10,05,46,3.90
2013,02,10,05,47,3.90
2013,02,10,05,48,3.90
2013,02,10,05,49,3.90
2013,02,10,05,50,3.90
2013,02,10,05,51,3.90
2013,02,10,05,52,3.90
2013,02,10,05,53,3.90
2013,02,10,05,54,3.90
2013,02,10,05,55,3.90
2013,02,10,05,56,3.90
2013,02,10,05,57,3.90
2013,02,10,05,58,3.90
2013,02,10,05,59,3.90
2013,02,10,06,00,3.90
2013,02,10,06,01,3.90
2013,02,10,06,02,3.90
2013,02,10,06,03,3.90
2013,02,10,06,04,3.90
2013,02,10,06,05,3.90
2013,02,10,06,06,3.90
2013,02,10,06,07,3.90
2013,02,10,06,08,3.90
2013,02,10,06,09,3.90
2013,02,10,06,10,3.90
2013,02,10,06,11,3.90
2013,02,10,06,12,3.90
2013,02,10,06,13,3.90
2013,02,10,06,14,3.90
2013,02,10,06,15,3.90
2013,02,10,06,16,3.90
2013,02,10,06,17,3.90
2013,02,10,06,18,3.90
2013,02,10,06,19,3.90
2013,02,10,06,20,3.90
2013,02,10,06,21,3.90
2013,02,10,06,22,3.90
2013,02,10,06,23,3.90
2013,02,10,06,24,3.90
2013,02,10,06,25,3.90
2013,02,10,06,26,3.90
2013,02,10,06,27,3.90
2013,02,10,06,28,3.90
2013,02,10,06,29,4.00
2013,02,10,06,30,3.90
2013,02,10,06,31,3.90
2013,02,10,06,32,3.90
2013,02,10,06,33,4.00
2013,02,10,06,34,3.90
2013,02,10,06,35,4.00
2013,02,10,06,36,3.90
2013,02,10,06,37,3.90
2013,02,10,06,38,3.90
2013,02,10,06,39,3.90
2013,02,10,06,40,3.90
2013,02,10,06,41,3.90
2013,02,10,06,42,3.90
2013,02,10,06,43,3.90
2013,02,10,06,44,3.90
2013,02,10,06,45,3.90
2013,02,10,06,46,3.90
2013,02,10,06,47,3.90
2013,02,10,06,48,3.90
2013,02,10,06,49,3.90
2013,02,10,06,50,3.90
2013,02,10,06,51,3.90
2013,02,10,06,52,3.90
2013,02,10,06,53,3.90
2013,02,10,06,54,3.90
2013,02,10,06,55,3.90
2013,02,10,06,56,3.90
2013,02,10,06,57,3.90
2013,02,10,06,58,3.90
2013,02,10,06,59,3.90
2013,02,10,07,00,3.90
2013,02,10,07,01,3.90
2013,02,10,07,02,3.90
2013,02,10,07,03,3.90
2013,02,10,07,04,3.90
2013,02,10,07,05,3.90
2013,02,10,07,06,3.90
2013,02,10,07,07,3.90
2013,02,10,07,08,3.90
2013,02,10,07,09,3.90
2013,02,10,07,10,3.90
2013,02,10,07,11,3.90
2013,02,10,07,12,3.80
2013,02,10,07,13,3.80
2013,02,10,07,14,3.80
2013,02,10,07,15,3.80
2013,02,10,07,16,3.80
2013,02,10,07,17,3.80
2013,02,10,07,18,3.80
2013,02,10,07,19,3.80
2013,02,10,07,20,3.80
2013,02,10,07,21,3.80
2013,02,10,07,22,3.80
2013,02,10,07,23,3.80
2013,02,10,07,24,3.80
2013,02,10,07,25,3.80
2013,02,10,07,26,3.80
2013,02,10,07,27,3.80
2013,02,10,07,28,3.80
2013,02,10,07,29,3.90
2013,02,10,07,30,3.80
2013,02,10,07,31,3.90
2013,02,10,07,32,3.90
2013,02,10,07,33,3.90
2013,02,10,07,34,3.90
2013,02,10,07,35,3.90
2013,02,10,07,36,3.90
2013,02,10,07,37,3.90
2013,02,10,07,38,3.90
2013,02,10,07,39,3.90
2013,02,10,07,40,3.90
2013,02,10,07,41,3.90
2013,02,10,07,42,3.90
2013,02,10,07,43,3.90
2013,02,10,07,44,3.90
2013,02,10,07,45,3.90
2013,02,10,07,46,3.90
2013,02,10,07,47,3.90
2013,02,10,07,48,3.90
2013,02,10,07,49,3.90
2013,02,10,07,50,3.90
2013,02,10,07,51,3.90
2013,02,10,07,52,3.90
2013,02,10,07,53,3.90
2013,02,10,07,54,3.90
2013,02,10,07,55,3.90
2013,02,10,07,56,3.90
2013,02,10,07,57,3.90
2013,02,10,07,58,3.90
2013,02,10,07,59,3.90
2013,02,10,08,00,3.90
2013,02,10,08,01,3.90
2013,02,10,08,02,3.90
2013,02,10,08,03,3.90
2013,02,10,08,04,3.90
2013,02,10,08,05,3.90
2013,02,10,08,06,3.90
2013,02,10,08,07,3.90
2013,02,10,08,08,3.90
2013,02,10,08,09,3.90
2013,02,10,08,10,3.90
2013,02,10,08,11,3.90
2013,02,10,08,12,3.90
2013,02,10,08,13,3.90
2013,02,10,08,14,3.90
2013,02,10,08,15,3.90
2013,02,10,08,16,3.90
2013,02,10,08,17,3.90
2013,02,10,08,18,3.90
2013,02,10,08,19,3.90
2013,02,10,08,20,4.00
2013,02,10,08,21,4.00
2013,02,10,08,22,4.00
2013,02,10,08,23,4.00
2013,02,10,08,24,4.00
2013,02,10,08,25,4.00
2013,02,10,08,26,4.00
2013,02,10,08,27,4.00
2013,02,10,08,28,4.10
2013,02,10,08,29,4.10
2013,02,10,08,30,4.10
2013,02,10,08,31,4.10
2013,02,10,08,32,4.10
2013,02,10,08,33,4.10
2013,02,10,08,34,4.10
2013,02,10,08,35,4.10
2013,02,10,08,36,4.10
2013,02,10,08,37,4.10
2013,02,10,08,38,4.10
2013,02,10,08,39,4.10
2013,02,10,08,40,4.20
2013,02,10,08,41,4.20
2013,02,10,08,42,4.20
2013,02,10,08,43,4.20
2013,02,10,08,44,4.20
2013,02,10,08,45,4.20
2013,02,10,08,46,4.20
2013,02,10,08,47,4.20
2013,02,10,08,48,4.20
2013,02,10,08,49,4.20
2013,02,10,08,50,4.20
2013,02,10,08,51,4.30
2013,02,10,08,52,4.30
2013,02,10,08,53,4.30
2013,02,10,08,54,4.30
2013,02,10,08,55,4.30
2013,02,10,08,56,4.30
2013,02,10,08,57,4.30
2013,02,10,08,58,4.30
2013,02,10,08,59,4.40
2013,02,10,09,00,4.40
2013,02,10,09,01,4.40
2013,02,10,09,02,4.40
2013,02,10,09,03,4.40
2013,02,10,09,04,4.40
2013,02,10,09,05,4.40
2013,02,10,09,06,4.40
2013,02,10,09,07,4.40
2013,02,10,09,08,4.40
2013,02,10,09,09,4.50
2013,02,10,09,10,4.50
2013,02,10,09,11,4.50
2013,02,10,09,12,4.50
2013,02,10,09,13,4.50
2013,02,10,09,14,4.50
2013,02,10,09,15,4.60
2013,02,10,09,16,4.60
2013,02,10,09,17,4.60
2013,02,10,09,18,4.60
2013,02,10,09,19,4.60
2013,02,10,09,20,4.60
2013,02,10,09,21,4.70
2013,02,10,09,22,4.70
2013,02,10,09,23,4.70
2013,02,10,09,24,4.70
2013,02,10,09,25,4.70
2013,02,10,09,26,4.70
2013,02,10,09,27,4.70
2013,02,10,09,28,4.70
2013,02,10,09,29,4.80
2013,02,10,09,30,4.80
2013,02,10,09,31,4.80
2013,02,10,09,32,4.80
2013,02,10,09,33,4.80
2013,02,10,09,34,4.80
2013,02,10,09,35,4.80
2013,02,10,09,36,4.80
2013,02,10,09,37,4.80
2013,02,10,09,38,4.90
2013,02,10,09,39,4.90
2013,02,10,09,40,4.90
2013,02,10,09,41,4.90
2013,02,10,09,42,4.90
2013,02,10,09,43,4.90
2013,02,10,09,44,4.90
2013,02,10,09,45,5.00
2013,02,10,09,46,5.00
2013,02,10,09,47,5.00
2013,02,10,09,48,5.00
2013,02,10,09,49,5.00
2013,02,10,09,50,5.00
2013,02,10,09,51,5.00
2013,02,10,09,52,5.10
2013,02,10,09,53,5.10
2013,02,10,09,54,5.10
2013,02,10,09,55,5.10
2013,02,10,09,56,5.10
2013,02,10,09,57,5.10
2013,02,10,09,58,5.10
2013,02,10,09,59,5.10
2013,02,10,10,00,5.10
2013,02,10,10,01,5.10
2013,02,10,10,02,5.10
2013,02,10,10,03,5.10
2013,02,10,10,04,5.10
2013,02,10,10,05,5.10
2013,02,10,10,06,5.10
2013,02,10,10,07,5.20
2013,02,10,10,08,5.20
2013,02,10,10,09,5.20
2013,02,10,10,10,5.20
2013,02,10,10,11,5.20
2013,02,10,10,12,5.20
2013,02,10,10,13,5.20
2013,02,10,10,14,5.20
2013,02,10,10,15,5.20
2013,02,10,10,16,5.20
2013,02,10,10,17,5.30
2013,02,10,10,18,5.30
2013,02,10,10,19,5.30
2013,02,10,10,20,5.30
2013,02,10,10,21,5.30
2013,02,10,10,22,5.30
2013,02,10,10,23,5.30
2013,02,10,10,24,5.30
2013,02,10,10,25,5.30
2013,02,10,10,26,5.40
2013,02,10,10,27,5.40
2013,02,10,10,28,5.40
2013,02,10,10,29,5.40
2013,02,10,10,30,5.40
2013,02,10,10,31,5.40
2013,02,10,10,32,5.40
2013,02,10,10,33,5.40
2013,02,10,10,34,5.40
2013,02,10,10,35,5.40
2013,02,10,10,36,5.40
2013,02,10,10,37,5.50
2013,02,10,10,38,5.50
2013,02,10,10,39,5.50
2013,02,10,10,40,5.50
2013,02,10,10,41,5.60
2013,02,10,10,42,5.60
2013,02,10,10,43,5.60
2013,02,10,10,44,5.60
2013,02,10,10,45,5.60
2013,02,10,10,46,5.60
2013,02,10,10,47,5.60
2013,02,10,10,48,5.60
2013,02,10,10,49,5.70
2013,02,10,10,50,5.70
2013,02,10,10,51,5.70
2013,02,10,10,52,5.70
2013,02,10,10,53,5.70
2013,02,10,10,54,5.70
2013,02,10,10,55,5.80
2013,02,10,10,56,5.80
2013,02,10,10,57,5.80
2013,02,10,10,58,5.80
2013,02,10,10,59,5.90
2013,02,10,11,00,5.90
2013,02,10,11,01,5.90
2013,02,10,11,02,5.90
2013,02,10,11,03,5.90
2013,02,10,11,04,5.90
2013,02,10,11,05,5.90
2013,02,10,11,06,5.90
2013,02,10,11,07,5.90
2013,02,10,11,08,5.90
2013,02,10,11,09,6.00
2013,02,10,11,10,6.00
2013,02,10,11,11,6.00
2013,02,10,11,12,6.10
2013,02,10,11,13,6.10
2013,02,10,11,14,6.10
2013,02,10,11,15,6.10
2013,02,10,11,16,6.10
2013,02,10,11,17,6.10
2013,02,10,11,18,6.10
2013,02,10,11,19,6.10
2013,02,10,11,20,6.20
2013,02,10,11,21,6.20
2013,02,10,11,22,6.20
2013,02,10,11,23,6.20
2013,02,10,11,24,6.10
2013,02,10,11,25,6.10
2013,02,10,11,26,6.10
2013,02,10,11,27,6.10
2013,02,10,11,28,6.10
2013,02,10,11,29,6.10
2013,02,10,11,30,6.20
2013,02,10,11,31,6.20
2013,02,10,11,32,6.20
2013,02,10,11,33,6.20
2013,02,10,11,34,6.10
2013,02,10,11,35,6.10
2013,02,10,11,36,6.10
2013,02,10,11,37,6.10
2013,02,10,11,38,6.10
2013,02,10,11,39,6.10
2013,02,10,11,40,6.10
2013,02,10,11,41,6.10
2013,02,10,11,42,6.10
2013,02,10,11,43,6.10
2013,02,10,11,44,6.10
2013,02,10,11,45,6.10
2013,02,10,11,46,6.20
2013,02,10,11,47,6.20
2013,02,10,11,48,6.20
2013,02,10,11,49,6.20
2013,02,10,11,50,6.20
2013,02,10,11,51,6.20
2013,02,10,11,52,6.20
2013,02,10,11,53,6.20
2013,02,10,11,54,6.20
2013,02,10,11,55,6.20
2013,02,10,11,56,6.20
2013,02,10,11,57,6.20
2013,02,10,11,58,6.20
2013,02,10,11,59,6.20
2013,02,10,12,00,6.20
2013,02,10,12,01,6.20
2013,02,10,12,02,6.20
2013,02,10,12,03,6.20
2013,02,10,12,04,6.20
2013,02,10,12,05,6.20
2013,02,10,12,06,6.20
2013,02,10,12,07,6.20
2013,02,10,12,08,6.20
2013,02,10,12,09,6.20
2013,02,10,12,10,6.20
2013,02,10,12,11,6.20
2013,02,10,12,12,6.20
2013,02,10,12,13,6.20
2013,02,10,12,14,6.20
2013,02,10,12,15,6.20
2013,02,10,12,16,6.20
2013,02,10,12,17,6.20
2013,02,10,12,18,6.20
2013,02,10,12,19,6.30
2013,02,10,12,20,6.30
2013,02,10,12,21,6.30
2013,02,10,12,22,6.30
2013,02,10,12,23,6.30
2013,02,10,12,24,6.30
2013,02,10,12,25,6.30
2013,02,10,12,26,6.30
2013,02,10,12,27,6.30
2013,02,10,12,28,6.30
2013,02,10,12,29,6.30
2013,02,10,12,30,6.30
2013,02,10,12,31,6.30
2013,02,10,12,32,6.30
2013,02,10,12,33,6.30
2013,02,10,12,34,6.30
2013,02,10,12,35,6.30
2013,02,10,12,36,6.30
2013,02,10,12,37,6.30
2013,02,10,12,38,6.30
2013,02,10,12,39,6.30
2013,02,10,12,40,6.40
2013,02,10,12,41,6.40
2013,02,10,12,42,6.40
2013,02,10,12,43,6.40
2013,02,10,12,44,6.40
2013,02,10,12,45,6.40
2013,02,10,12,46,6.40
2013,02,10,12,47,6.40
2013,02,10,12,48,6.40
2013,02,10,12,49,6.40
2013,02,10,12,50,6.40
2013,02,10,12,51,6.40
2013,02,10,12,52,6.40
2013,02,10,12,53,6.40
2013,02,10,12,54,6.40
2013,02,10,12,55,6.50
2013,02,10,12,56,6.50
2013,02,10,12,57,6.50
2013,02,10,12,58,6.50
2013,02,10,12,59,6.60
2013,02,10,13,00,6.60
2013,02,10,13,01,6.60
2013,02,10,13,02,6.60
2013,02,10,13,03,6.60
2013,02,10,13,04,6.60
2013,02,10,13,05,6.60
2013,02,10,13,06,6.60
2013,02,10,13,07,6.60
2013,02,10,13,08,6.60
2013,02,10,13,09,6.60
2013,02,10,13,10,6.60
2013,02,10,13,11,6.60
2013,02,10,13,12,6.60
2013,02,10,13,13,6.60
2013,02,10,13,14,6.60
2013,02,10,13,15,6.60
2013,02,10,13,16,6.60
2013,02,10,13,17,6.50
2013,02,10,13,18,6.50
2013,02,10,13,19,6.50
2013,02,10,13,20,6.50
2013,02,10,13,21,6.60
2013,02,10,13,22,6.60
2013,02,10,13,23,6.60
2013,02,10,13,24,6.60
2013,02,10,13,25,6.60
2013,02,10,13,26,6.60
2013,02,10,13,27,6.60
2013,02,10,13,28,6.60
2013,02,10,13,29,6.60
2013,02,10,13,30,6.60
2013,02,10,13,31,6.60
2013,02,10,13,32,6.60
2013,02,10,13,33,6.70
2013,02,10,13,34,6.70
2013,02,10,13,35,6.70
2013,02,10,13,36,6.70
2013,02,10,13,37,6.70
2013,02,10,13,38,6.70
2013,02,10,13,39,6.70
2013,02,10,13,40,6.70
2013,02,10,13,41,6.80
2013,02,10,13,42,6.80
2013,02,10,13,43,6.80
2013,02,10,13,44,6.80
2013,02,10,13,45,6.90
2013,02,10,13,46,6.90
2013,02,10,13,47,6.90
2013,02,10,13,48,6.90
2013,02,10,13,49,6.90
2013,02,10,13,50,6.90
2013,02,10,13,51,6.80
2013,02,10,13,52,6.80
2013,02,10,13,53,6.80
2013,02,10,13,54,6.80
2013,02,10,13,55,6.80
2013,02,10,13,56,6.80
2013,02,10,13,57,6.80
2013,02,10,13,58,6.80
2013,02,10,13,59,6.80
2013,02,10,14,00,6.80
2013,02,10,14,01,6.80
2013,02,10,14,02,6.90
2013,02,10,14,03,6.90
2013,02,10,14,04,6.80
2013,02,10,14,05,6.80
2013,02,10,14,06,6.80
2013,02,10,14,07,6.80
2013,02,10,14,08,6.80
2013,02,10,14,09,6.70
2013,02,10,14,10,6.70
2013,02,10,14,11,6.70
2013,02,10,14,12,6.70
2013,02,10,14,13,6.70
2013,02,10,14,14,6.70
2013,02,10,14,15,6.70
2013,02,10,14,16,6.70
2013,02,10,14,17,6.70
2013,02,10,14,18,6.70
2013,02,10,14,19,6.70
2013,02,10,14,20,6.70
2013,02,10,14,21,6.70
2013,02,10,14,22,6.70
2013,02,10,14,23,6.70
2013,02,10,14,24,6.70
2013,02,10,14,25,6.70
2013,02,10,14,26,6.60
2013,02,10,14,27,6.60
2013,02,10,14,28,6.60
2013,02,10,14,29,6.60
2013,02,10,14,30,6.60
2013,02,10,14,31,6.60
2013,02,10,14,32,6.60
2013,02,10,14,33,6.60
2013,02,10,14,34,6.60
2013,02,10,14,35,6.60
2013,02,10,14,36,6.60
2013,02,10,14,37,6.60
2013,02,10,14,38,6.60
2013,02,10,14,39,6.60
2013,02,10,14,40,6.60
2013,02,10,14,41,6.60
2013,02,10,14,42,6.60
2013,02,10,14,43,6.60
2013,02,10,14,44,6.60
2013,02,10,14,45,6.60
2013,02,10,14,46,6.60
2013,02,10,14,47,6.60
2013,02,10,14,48,6.60
2013,02,10,14,49,6.60
2013,02,10,14,50,6.60
2013,02,10,14,51,6.60
2013,02,10,14,52,6.60
2013,02,10,14,53,6.60
2013,02,10,14,54,6.60
2013,02,10,14,55,6.60
2013,02,10,14,56,6.60
2013,02,10,14,57,6.60
2013,02,10,14,58,6.70
2013,02,10,14,59,6.70
2013,02,10,15,00,6.70
2013,02,10,15,01,6.70
2013,02,10,15,02,6.70
2013,02,10,15,03,6.70
2013,02,10,15,04,6.70
2013,02,10,15,05,6.70
2013,02,10,15,06,6.70
2013,02,10,15,07,6.70
2013,02,10,15,08,6.70
2013,02,10,15,09,6.70
2013,02,10,15,10,6.70
2013,02,10,15,11,6.70
2013,02,10,15,12,6.80
2013,02,10,15,13,6.80
2013,02,10,15,14,6.80
2013,02,10,15,15,6.80
2013,02,10,15,16,6.80
2013,02,10,15,17,6.80
2013,02,10,15,18,6.80
2013,02,10,15,19,6.80
2013,02,10,15,20,6.80
2013,02,10,15,21,6.80
2013,02,10,15,22,6.80
2013,02,10,15,23,6.80
2013,02,10,15,24,6.80
2013,02,10,15,25,6.80
2013,02,10,15,26,6.80
2013,02,10,15,27,6.80
2013,02,10,15,28,6.80
2013,02,10,15,29,6.80
2013,02,10,15,30,6.80
2013,02,10,15,31,6.80
2013,02,10,15,32,6.80
2013,02,10,15,33,6.90
2013,02,10,15,34,6.90
2013,02,10,15,35,6.90
2013,02,10,15,36,6.90
2013,02,10,15,37,7.00
2013,02,10,15,38,7.00
2013,02,10,15,39,7.00
2013,02,10,15,40,7.00
2013,02,10,15,41,7.00
2013,02,10,15,42,7.00
2013,02,10,15,43,7.10
2013,02,10,15,44,7.10
2013,02,10,15,45,7.10
2013,02,10,15,46,7.10
2013,02,10,15,47,7.10
2013,02,10,15,48,7.10
2013,02,10,15,49,7.10
2013,02,10,15,50,7.10
2013,02,10,15,51,7.10
2013,02,10,15,52,7.20
2013,02,10,15,53,7.20
2013,02,10,15,54,7.10
2013,02,10,15,55,7.10
2013,02,10,15,56,7.10
2013,02,10,15,57,7.10
2013,02,10,15,58,7.10
2013,02,10,15,59,7.10
2013,02,10,16,00,7.00
2013,02,10,16,01,7.00
2013,02,10,16,02,7.00
2013,02,10,16,03,7.00
2013,02,10,16,04,6.90
2013,02,10,16,05,6.90
2013,02,10,16,06,6.90
2013,02,10,16,07,6.90
2013,02,10,16,08,6.90
2013,02,10,16,09,6.80
2013,02,10,16,10,6.80
2013,02,10,16,11,6.80
2013,02,10,16,12,6.80
2013,02,10,16,13,6.80
2013,02,10,16,14,6.80
2013,02,10,16,15,6.80
2013,02,10,16,16,6.80
2013,02,10,16,17,6.80
2013,02,10,16,18,6.80
2013,02,10,16,19,6.80
2013,02,10,16,20,6.80
2013,02,10,16,21,6.80
2013,02,10,16,22,6.80
2013,02,10,16,23,6.80
2013,02,10,16,24,6.80
2013,02,10,16,25,6.80
2013,02,10,16,26,6.80
2013,02,10,16,27,6.80
2013,02,10,16,28,6.80
2013,02,10,16,29,6.70
2013,02,10,16,30,6.70
2013,02,10,16,31,6.70
2013,02,10,16,32,6.70
2013,02,10,16,33,6.70
2013,02,10,16,34,6.70
2013,02,10,16,35,6.70
2013,02,10,16,36,6.70
2013,02,10,16,37,6.70
2013,02,10,16,38,6.70
2013,02,10,16,39,6.70
2013,02,10,16,40,6.70
2013,02,10,16,41,6.70
2013,02,10,16,42,6.60
2013,02,10,16,43,6.60
2013,02,10,16,44,6.60
2013,02,10,16,45,6.60
2013,02,10,16,46,6.60
2013,02,10,16,47,6.60
2013,02,10,16,48,6.50
2013,02,10,16,49,6.50
2013,02,10,16,50,6.50
2013,02,10,16,51,6.50
2013,02,10,16,52,6.50
2013,02,10,16,53,6.50
2013,02,10,16,54,6.50
2013,02,10,16,55,6.50
2013,02,10,16,56,6.50
2013,02,10,16,57,6.50
2013,02,10,16,58,6.40
2013,02,10,16,59,6.40
2013,02,10,17,00,6.40
2013,02,10,17,01,6.40
2013,02,10,17,02,6.40
2013,02,10,17,03,6.40
2013,02,10,17,04,6.40
2013,02,10,17,05,6.40
2013,02,10,17,06,6.40
2013,02,10,17,07,6.40
2013,02,10,17,08,6.40
2013,02,10,17,09,6.40
2013,02,10,17,10,6.40
2013,02,10,17,11,6.40
2013,02,10,17,12,6.40
2013,02,10,17,13,6.40
2013,02,10,17,14,6.30
2013,02,10,17,15,6.30
2013,02,10,17,16,6.30
2013,02,10,17,17,6.30
2013,02,10,17,18,6.30
2013,02,10,17,19,6.30
2013,02,10,17,20,6.30
2013,02,10,17,21,6.30
2013,02,10,17,22,6.30
2013,02,10,17,23,6.20
2013,02,10,17,24,6.20
2013,02,10,17,25,6.20
2013,02,10,17,26,6.20
2013,02,10,17,27,6.20
2013,02,10,17,28,6.20
2013,02,10,17,29,6.20
2013,02,10,17,30,6.20
2013,02,10,17,31,6.10
2013,02,10,17,32,6.10
2013,02,10,17,33,6.10
2013,02,10,17,34,6.10
2013,02,10,17,35,6.10
2013,02,10,17,36,6.10
2013,02,10,17,37,6.10
2013,02,10,17,38,6.10
2013,02,10,17,39,6.10
2013,02,10,17,40,6.10
2013,02,10,17,41,6.00
2013,02,10,17,42,6.00
2013,02,10,17,43,6.00
2013,02,10,17,44,6.00
2013,02,10,17,45,6.00
2013,02,10,17,46,6.00
2013,02,10,17,47,6.00
2013,02,10,17,48,6.00
2013,02,10,17,49,6.00
2013,02,10,17,50,6.00
2013,02,10,17,51,5.90
2013,02,10,17,52,5.90
2013,02,10,17,53,5.90
2013,02,10,17,54,5.90
2013,02,10,17,55,5.90
2013,02,10,17,56,5.90
2013,02,10,17,57,5.90
2013,02,10,17,58,5.90
2013,02,10,17,59,5.90
2013,02,10,18,00,5.90
2013,02,10,18,01,5.90
2013,02,10,18,02,5.90
2013,02,10,18,03,5.90
2013,02,10,18,04,5.90
2013,02,10,18,05,5.80
2013,02,10,18,06,5.80